TimeEST,TemperatureF,Dew PointF,Humidity,Sea Level PressureIn,VisibilityMPH,Wind Direction,Wind SpeedMPH,Gust SpeedMPH,PrecipitationIn,Events,Conditions,WindDirDegrees,DateUTC
12:53 AM,42.1,26.1,53,30.25,10.0,Calm,Calm,-,N/A,,Overcast,0,2013-01-15 05:53:00
1:53 AM,41.0,26.1,55,30.26,10.0,NW,3.5,-,N/A,,Overcast,320,2013-01-15 06:53:00
2:53 AM,37.9,30.0,73,30.25,10.0,NNW,3.5,-,0.01,Rain,Light Rain,340,2013-01-15 07:53:00
3:53 AM,37.9,30.0,73,30.23,10.0,Calm,Calm,-,0.00,,Mostly Cloudy,0,2013-01-15 08:53:00
4:53 AM,39.0,26.1,60,30.22,10.0,NNW,3.5,-,N/A,,Mostly Cloudy,340,2013-01-15 09:53:00
5:53 AM,37.9,25.0,60,30.23,10.0,North,4.6,-,N/A,,Clear,350,2013-01-15 10:53:00
6:53 AM,36.0,25.0,64,30.27,10.0,NNW,4.6,-,N/A,,Clear,330,2013-01-15 11:53:00
7:53 AM,35.1,24.1,64,30.30,10.0,NNW,4.6,-,N/A,,Clear,330,2013-01-15 12:53:00
8:53 AM,37.0,25.0,62,30.31,10.0,North,5.8,-,N/A,,Mostly Cloudy,360,2013-01-15 13:53:00
9:53 AM,39.0,24.1,55,30.31,10.0,North,6.9,-,N/A,,Mostly Cloudy,360,2013-01-15 14:53:00
10:53 AM,39.9,24.1,53,30.30,10.0,NNW,3.5,-,N/A,,Mostly Cloudy,340,2013-01-15 15:53:00
11:53 AM,41.0,24.1,51,30.28,10.0,NNW,4.6,-,N/A,,Partly Cloudy,330,2013-01-15 16:53:00
12:53 PM,42.1,24.1,49,30.26,10.0,Calm,Calm,-,N/A,,Overcast,0,2013-01-15 17:53:00
1:53 PM,42.1,23.0,47,30.27,10.0,NNW,4.6,-,N/A,,Mostly Cloudy,340,2013-01-15 18:53:00
2:53 PM,42.1,23.0,47,30.25,10.0,Calm,Calm,-,N/A,,Clear,0,2013-01-15 19:53:00
4:53 PM,39.9,23.0,51,30.26,10.0,Calm,Calm,-,N/A,,Clear,0,2013-01-15 21:53:00
5:53 PM,33.1,25.0,72,30.27,10.0,Calm,Calm,-,N/A,,Clear,0,2013-01-15 22:53:00
6:53 PM,32.0,25.0,75,30.27,10.0,Calm,Calm,-,N/A,,Clear,0,2013-01-15 23:53:00
7:53 PM,30.9,26.1,82,30.27,10.0,Calm,Calm,-,N/A,,Clear,0,2013-01-16 00:53:00
8:53 PM,30.9,26.1,82,30.26,10.0,Calm,Calm,-,N/A,,Clear,0,2013-01-16 01:53:00
9:53 PM,35.1,24.1,64,30.26,10.0,Calm,Calm,-,N/A,,Clear,0,2013-01-16 02:53:00
10:53 PM,33.1,26.1,75,30.24,10.0,Calm,Calm,-,N/A,,Clear,0,2013-01-16 03:53:00
11:53 PM,32.0,27.0,82,30.23,10.0,Calm,Calm,-,N/A,,Overcast,0,2013-01-16 04:53:00